TimeCDT,TemperatureF,Dew PointF,Humidity,Sea Level PressureIn,VisibilityMPH,Wind Direction,Wind SpeedMPH,Gust SpeedMPH,PrecipitationIn,Events,Conditions,WindDirDegrees,DateUTC
12:56 AM,37.0,33.1,86,30.27,-9999.0,SSW,9.2,-,N/A,,Unknown,210,2012-10-28 05:56:00
1:56 AM,36.0,32.0,86,30.27,-9999.0,North,5.8,-,N/A,,Unknown,360,2012-10-28 06:56:00
2:56 AM,33.1,30.9,92,30.28,-9999.0,North,6.9,-,N/A,,Unknown,360,2012-10-28 07:56:00
3:56 AM,33.1,30.9,92,30.28,-9999.0,North,6.9,-,N/A,,Unknown,360,2012-10-28 08:56:00
4:56 AM,33.1,30.9,92,30.27,-9999.0,North,3.5,-,N/A,,Unknown,350,2012-10-28 09:56:00
5:56 AM,33.1,30.9,92,30.28,-9999.0,NNW,6.9,-,N/A,,Unknown,340,2012-10-28 10:56:00
6:56 AM,33.1,30.9,92,30.29,-9999.0,North,6.9,-,N/A,,Unknown,350,2012-10-28 11:56:00
7:56 AM,33.1,30.9,92,30.30,-9999.0,North,6.9,-,N/A,,Unknown,360,2012-10-28 12:56:00
8:56 AM,33.1,30.9,92,30.30,-9999.0,NNE,4.6,-,N/A,,Unknown,20,2012-10-28 13:56:00
9:56 AM,33.1,30.9,92,30.30,-9999.0,Calm,Calm,-,N/A,,Unknown,0,2012-10-28 14:56:00
10:56 AM,34.0,32.0,92,30.29,-9999.0,Calm,Calm,-,N/A,,Unknown,0,2012-10-28 15:56:00
11:56 AM,35.1,33.1,92,30.28,-9999.0,Calm,Calm,-,N/A,,Unknown,0,2012-10-28 16:56:00
12:56 PM,37.0,33.1,86,30.27,-9999.0,Calm,Calm,-,N/A,,Unknown,0,2012-10-28 17:56:00
1:56 PM,39.9,33.1,77,30.24,-9999.0,East,4.6,-,N/A,,Unknown,90,2012-10-28 18:56:00
2:56 PM,42.1,33.1,70,30.23,-9999.0,SSE,8.1,-,N/A,,Unknown,160,2012-10-28 19:56:00
3:56 PM,42.1,30.9,65,30.22,-9999.0,SE,4.6,-,N/A,,Unknown,130,2012-10-28 20:56:00
4:56 PM,43.0,32.0,65,30.21,-9999.0,SE,8.1,-,N/A,,Unknown,130,2012-10-28 21:56:00
5:56 PM,42.1,32.0,67,30.20,-9999.0,East,4.6,-,N/A,,Unknown,100,2012-10-28 22:56:00
6:56 PM,39.9,32.0,73,30.20,-9999.0,East,5.8,-,N/A,,Unknown,90,2012-10-28 23:56:00
7:56 PM,37.0,30.9,79,30.20,-9999.0,ESE,3.5,-,N/A,,Unknown,110,2012-10-29 00:56:00
8:56 PM,36.0,30.9,82,30.20,-9999.0,Calm,Calm,-,N/A,,Unknown,0,2012-10-29 01:56:00
9:56 PM,34.0,30.9,89,30.21,-9999.0,Calm,Calm,-,N/A,,Unknown,0,2012-10-29 02:56:00
10:56 PM,37.0,32.0,82,30.19,-9999.0,SSE,9.2,-,N/A,,Unknown,160,2012-10-29 03:56:00
11:56 PM,36.0,32.0,86,30.18,-9999.0,South,11.5,-,N/A,,Unknown,170,2012-10-29 04:56:00